Time,TemperatureF,DewpointF,PressureIn,WindDirection,WindDirectionDegrees,WindSpeedMPH,WindSpeedGustMPH,Humidity,HourlyPrecipIn,Conditions,Clouds,dailyrainin,SoftwareType,DateUTC
2013-04-27 00:01:00,53.1,40.4,30.32,SW,234,0.0,0.0,62,0.00,,,0.00,VWS V14.01,2013-04-27 04:01:00,
2013-04-27 00:05:00,53.3,41.0,30.32,SW,234,0.0,0.0,63,0.00,,,0.00,VWS V14.01,2013-04-27 04:05:00,
2013-04-27 00:06:00,53.3,41.0,30.32,SW,234,0.0,0.0,63,0.00,,,0.00,VWS V14.01,2013-04-27 04:06:00,
2013-04-27 00:09:00,53.4,40.7,30.32,SW,234,0.0,0.0,62,0.00,,,0.00,VWS V14.01,2013-04-27 04:09:00,
2013-04-27 00:14:00,53.4,41.1,30.32,SW,234,0.0,0.0,63,0.00,,,0.00,VWS V14.01,2013-04-27 04:14:00,
2013-04-27 00:19:00,53.4,40.7,30.32,SW,234,0.0,0.0,62,0.00,,,0.00,VWS V14.01,2013-04-27 04:19:00,
2013-04-27 00:24:00,53.4,40.7,30.32,SW,234,0.0,0.0,62,0.00,,,0.00,VWS V14.01,2013-04-27 04:24:00,
2013-04-27 00:29:00,53.4,41.1,30.32,SW,234,0.0,0.0,63,0.00,,,0.00,VWS V14.01,2013-04-27 04:29:00,
2013-04-27 00:34:00,53.3,40.6,30.32,SW,234,0.0,0.0,62,0.00,,,0.00,VWS V14.01,2013-04-27 04:34:00,
2013-04-27 00:39:00,53.3,41.0,30.32,SW,234,0.0,0.0,63,0.00,,,0.00,VWS V14.01,2013-04-27 04:39:00,
2013-04-27 00:44:00,53.3,40.6,30.32,SW,234,0.0,0.0,62,0.00,,,0.00,VWS V14.01,2013-04-27 04:44:00,
2013-04-27 00:49:00,53.4,41.5,30.31,SW,234,0.0,0.0,64,0.00,,,0.00,VWS V14.01,2013-04-27 04:49:00,
2013-04-27 00:54:00,53.4,41.9,30.31,SW,234,0.0,0.0,65,0.00,,,0.00,VWS V14.01,2013-04-27 04:54:00,
2013-04-27 00:59:00,53.4,41.1,30.32,SW,234,0.0,0.0,63,0.00,,,0.00,VWS V14.01,2013-04-27 04:59:00,
2013-04-27 01:04:00,53.3,41.0,30.31,SW,234,0.0,0.0,63,0.00,,,0.00,VWS V14.01,2013-04-27 05:04:00,
2013-04-27 01:09:00,53.3,41.0,30.31,SW,234,0.0,0.0,63,0.00,,,0.00,VWS V14.01,2013-04-27 05:09:00,
2013-04-27 01:14:00,53.3,41.0,30.32,SW,234,0.0,0.0,63,0.00,,,0.00,VWS V14.01,2013-04-27 05:14:00,
2013-04-27 01:19:00,53.2,41.3,30.32,SW,234,0.0,0.0,64,0.00,,,0.00,VWS V14.01,2013-04-27 05:19:00,
2013-04-27 01:24:00,53.1,41.7,30.32,SW,235,0.0,0.0,65,0.00,,,0.00,VWS V14.01,2013-04-27 05:24:00,
2013-04-27 01:29:00,53.0,42.7,30.31,SW,234,0.0,0.0,68,0.00,,,0.00,VWS V14.01,2013-04-27 05:29:00,
2013-04-27 01:34:00,52.7,42.5,30.32,SW,234,0.0,0.0,68,0.00,,,0.00,VWS V14.01,2013-04-27 05:34:00,
2013-04-27 01:39:00,52.4,42.5,30.32,SW,234,0.0,1.0,69,0.00,,,0.00,VWS V14.01,2013-04-27 05:39:00,
2013-04-27 01:44:00,52.4,42.5,30.31,SW,234,0.0,0.0,69,0.00,,,0.00,VWS V14.01,2013-04-27 05:44:00,
2013-04-27 01:49:00,52.5,43.0,30.31,SW,234,0.0,0.0,70,0.00,,,0.00,VWS V14.01,2013-04-27 05:49:00,
2013-04-27 01:54:00,52.4,42.9,30.31,SW,234,0.0,0.0,70,0.00,,,0.00,VWS V14.01,2013-04-27 05:54:00,
2013-04-27 01:59:00,52.5,43.0,30.31,SW,234,0.0,0.0,70,0.00,,,0.00,VWS V14.01,2013-04-27 05:59:00,
2013-04-27 02:04:00,52.5,43.0,30.31,SW,234,0.0,0.0,70,0.00,,,0.00,VWS V14.01,2013-04-27 06:04:00,
2013-04-27 02:09:00,52.4,43.3,30.30,SW,234,0.0,0.0,71,0.00,,,0.00,VWS V14.01,2013-04-27 06:09:00,
2013-04-27 02:14:00,52.4,43.3,30.31,SW,234,0.0,0.0,71,0.00,,,0.00,VWS V14.01,2013-04-27 06:14:00,
2013-04-27 02:19:00,52.5,43.4,30.31,SW,234,0.0,0.0,71,0.00,,,0.00,VWS V14.01,2013-04-27 06:19:00,
2013-04-27 02:24:00,52.5,43.4,30.31,SW,234,0.0,0.0,71,0.00,,,0.00,VWS V14.01,2013-04-27 06:24:00,
2013-04-27 02:29:00,52.6,43.8,30.32,SW,234,0.0,0.0,72,0.00,,,0.00,VWS V14.01,2013-04-27 06:29:00,
2013-04-27 02:34:00,52.6,43.8,30.32,SW,234,0.0,1.0,72,0.00,,,0.00,VWS V14.01,2013-04-27 06:34:00,
2013-04-27 02:39:00,52.6,44.2,30.31,SW,234,0.0,0.0,73,0.00,,,0.00,VWS V14.01,2013-04-27 06:39:00,
2013-04-27 02:44:00,52.5,44.1,30.31,SW,234,0.0,0.0,73,0.00,,,0.00,VWS V14.01,2013-04-27 06:44:00,
2013-04-27 02:49:00,52.4,44.0,30.30,SW,234,0.0,0.0,73,0.00,,,0.00,VWS V14.01,2013-04-27 06:49:00,
2013-04-27 02:54:00,52.3,43.9,30.30,SW,234,0.0,0.0,73,0.00,,,0.00,VWS V14.01,2013-04-27 06:54:00,
2013-04-27 02:59:00,52.3,44.3,30.30,SW,234,0.0,0.0,74,0.00,,,0.00,VWS V14.01,2013-04-27 06:59:00,
2013-04-27 03:04:00,52.2,44.5,30.30,SW,234,0.0,0.0,75,0.00,,,0.00,VWS V14.01,2013-04-27 07:04:00,
2013-04-27 03:09:00,52.1,44.4,30.30,SW,234,1.0,1.0,75,0.00,,,0.00,VWS V14.01,2013-04-27 07:09:00,
2013-04-27 03:14:00,51.9,44.2,30.30,SW,234,0.0,0.0,75,0.00,,,0.00,VWS V14.01,2013-04-27 07:14:00,
2013-04-27 03:19:00,51.8,44.5,30.30,SW,234,0.0,0.0,76,0.00,,,0.00,VWS V14.01,2013-04-27 07:19:00,
2013-04-27 03:24:00,51.7,44.4,30.30,SW,234,0.0,0.0,76,0.00,,,0.00,VWS V14.01,2013-04-27 07:24:00,
2013-04-27 03:30:00,51.6,44.6,30.29,SW,234,0.0,0.0,77,0.00,,,0.00,VWS V14.01,2013-04-27 07:30:00,
2013-04-27 03:35:00,51.5,44.5,30.28,SW,234,0.0,0.0,77,0.00,,,0.00,VWS V14.01,2013-04-27 07:35:00,
2013-04-27 03:40:00,51.5,45.2,30.28,SW,234,0.0,0.0,79,0.00,,,0.00,VWS V14.01,2013-04-27 07:40:00,
2013-04-27 03:45:00,51.5,45.2,30.27,SW,234,0.0,0.0,79,0.00,,,0.00,VWS V14.01,2013-04-27 07:45:00,
2013-04-27 03:50:00,51.5,44.9,30.28,SW,234,0.0,0.0,78,0.00,,,0.00,VWS V14.01,2013-04-27 07:50:00,
2013-04-27 03:55:00,51.6,45.0,30.27,SW,234,0.0,0.0,78,0.00,,,0.00,VWS V14.01,2013-04-27 07:55:00,
2013-04-27 04:00:00,51.7,45.1,30.28,SW,234,0.0,0.0,78,0.00,,,0.00,VWS V14.01,2013-04-27 08:00:00,
2013-04-27 04:05:00,51.8,44.8,30.27,SW,234,0.0,0.0,77,0.00,,,0.00,VWS V14.01,2013-04-27 08:05:00,
2013-04-27 04:10:00,51.8,44.8,30.28,SW,234,0.0,0.0,77,0.00,,,0.00,VWS V14.01,2013-04-27 08:10:00,
2013-04-27 04:15:00,51.8,45.2,30.27,SW,234,0.0,0.0,78,0.00,,,0.00,VWS V14.01,2013-04-27 08:15:00,
2013-04-27 04:20:00,51.8,45.2,30.27,SW,234,0.0,0.0,78,0.00,,,0.00,VWS V14.01,2013-04-27 08:20:00,
2013-04-27 04:25:00,51.7,45.7,30.26,SW,234,0.0,0.0,80,0.00,,,0.00,VWS V14.01,2013-04-27 08:25:00,
2013-04-27 04:30:00,51.7,45.4,30.26,SW,234,1.0,2.0,79,0.00,,,0.00,VWS V14.01,2013-04-27 08:30:00,
2013-04-27 04:35:00,51.8,45.5,30.26,SW,234,0.0,0.0,79,0.00,,,0.00,VWS V14.01,2013-04-27 08:35:00,
2013-04-27 04:40:00,51.8,45.8,30.25,SW,234,0.0,0.0,80,0.00,,,0.00,VWS V14.01,2013-04-27 08:40:00,
2013-04-27 04:45:00,51.8,45.8,30.24,SW,234,0.0,0.0,80,0.00,,,0.00,VWS V14.01,2013-04-27 08:45:00,
2013-04-27 04:50:00,51.8,45.8,30.24,SW,234,2.0,2.0,80,0.00,,,0.00,VWS V14.01,2013-04-27 08:50:00,
2013-04-27 04:55:00,51.9,45.9,30.25,SW,234,0.0,0.0,80,0.00,,,0.00,VWS V14.01,2013-04-27 08:55:00,
2013-04-27 05:00:00,52.0,45.7,30.26,SW,234,0.0,1.0,79,0.00,,,0.00,VWS V14.01,2013-04-27 09:00:00,
2013-04-27 05:05:00,52.2,45.9,30.25,SW,234,1.0,1.0,79,0.00,,,0.00,VWS V14.01,2013-04-27 09:05:00,
2013-04-27 05:10:00,52.3,46.0,30.26,SW,234,0.0,0.0,79,0.00,,,0.00,VWS V14.01,2013-04-27 09:10:00,
2013-04-27 05:15:00,52.3,46.0,30.26,SW,234,0.0,0.0,79,0.00,,,0.00,VWS V14.01,2013-04-27 09:15:00,
2013-04-27 05:20:00,52.3,46.0,30.26,SW,234,0.0,0.0,79,0.00,,,0.00,VWS V14.01,2013-04-27 09:20:00,
2013-04-27 05:25:00,52.3,46.0,30.26,SW,234,0.0,0.0,79,0.00,,,0.00,VWS V14.01,2013-04-27 09:25:00,
2013-04-27 05:30:00,52.3,46.3,30.25,SW,234,0.0,0.0,80,0.00,,,0.00,VWS V14.01,2013-04-27 09:30:00,
2013-04-27 05:35:00,52.3,46.3,30.25,SW,234,0.0,0.0,80,0.00,,,0.00,VWS V14.01,2013-04-27 09:35:00,
2013-04-27 05:40:00,52.2,46.2,30.25,SW,234,0.0,1.0,80,0.00,,,0.00,VWS V14.01,2013-04-27 09:40:00,
2013-04-27 05:45:00,52.1,46.5,30.24,SW,234,0.0,0.0,81,0.00,,,0.00,VWS V14.01,2013-04-27 09:45:00,
2013-04-27 05:50:00,52.1,46.5,30.24,SW,234,0.0,0.0,81,0.00,,,0.00,VWS V14.01,2013-04-27 09:50:00,
2013-04-27 05:55:00,52.0,46.4,30.24,SW,234,0.0,0.0,81,0.00,,,0.00,VWS V14.01,2013-04-27 09:55:00,
2013-04-27 06:00:00,52.0,46.7,30.24,SW,234,0.0,1.0,82,0.00,,,0.00,VWS V14.01,2013-04-27 10:00:00,
2013-04-27 06:05:00,52.0,46.7,30.23,SW,234,0.0,0.0,82,0.00,,,0.00,VWS V14.01,2013-04-27 10:05:00,
2013-04-27 06:10:00,52.1,46.8,30.23,SW,234,0.0,0.0,82,0.00,,,0.00,VWS V14.01,2013-04-27 10:10:00,
2013-04-27 06:15:00,52.1,47.1,30.22,SW,234,0.0,0.0,83,0.00,,,0.00,VWS V14.01,2013-04-27 10:15:00,
2013-04-27 06:20:00,52.0,47.0,30.21,SW,234,1.0,1.0,83,0.00,,,0.00,VWS V14.01,2013-04-27 10:20:00,
2013-04-27 06:25:00,52.0,47.0,30.21,SW,233,1.0,2.0,83,0.00,,,0.00,VWS V14.01,2013-04-27 10:25:00,
2013-04-27 06:30:00,52.0,47.0,30.21,SW,233,0.0,1.0,83,0.00,,,0.00,VWS V14.01,2013-04-27 10:30:00,
2013-04-27 06:35:00,52.0,47.0,30.21,SW,233,0.0,0.0,83,0.00,,,0.00,VWS V14.01,2013-04-27 10:35:00,
2013-04-27 06:40:00,52.0,47.3,30.21,SW,233,0.0,0.0,84,0.00,,,0.00,VWS V14.01,2013-04-27 10:40:00,
2013-04-27 06:45:00,52.1,47.4,30.21,SW,232,0.0,0.0,84,0.00,,,0.00,VWS V14.01,2013-04-27 10:45:00,
2013-04-27 06:50:00,52.1,47.7,30.21,SW,232,0.0,1.0,85,0.00,,,0.00,VWS V14.01,2013-04-27 10:50:00,
2013-04-27 06:56:00,52.1,47.7,30.21,SW,229,0.0,0.0,85,0.00,,,0.00,VWS V14.01,2013-04-27 10:56:00,
2013-04-27 07:01:00,52.2,47.8,30.21,SW,229,0.0,1.0,85,0.00,,,0.00,VWS V14.01,2013-04-27 11:01:00,
2013-04-27 07:06:00,52.2,47.8,30.21,SW,229,0.0,0.0,85,0.00,,,0.00,VWS V14.01,2013-04-27 11:06:00,
2013-04-27 07:11:00,52.3,48.2,30.21,SW,229,0.0,0.0,86,0.00,,,0.00,VWS V14.01,2013-04-27 11:11:00,
2013-04-27 07:16:00,52.3,48.2,30.22,SW,229,0.0,0.0,86,0.00,,,0.00,VWS V14.01,2013-04-27 11:16:00,
2013-04-27 07:21:00,52.4,48.3,30.22,SW,229,0.0,0.0,86,0.00,,,0.00,VWS V14.01,2013-04-27 11:21:00,
2013-04-27 07:26:00,52.4,48.3,30.22,SW,229,0.0,0.0,86,0.00,,,0.00,VWS V14.01,2013-04-27 11:26:00,
2013-04-27 07:31:00,52.5,48.4,30.22,SW,229,0.0,0.0,86,0.00,,,0.00,VWS V14.01,2013-04-27 11:31:00,
2013-04-27 07:36:00,52.5,48.4,30.22,SW,229,0.0,0.0,86,0.00,,,0.00,VWS V14.01,2013-04-27 11:36:00,
2013-04-27 07:41:00,52.5,48.4,30.22,SW,229,0.0,0.0,86,0.00,,,0.00,VWS V14.01,2013-04-27 11:41:00,
2013-04-27 07:46:00,52.4,48.7,30.21,SW,229,0.0,0.0,87,0.00,,,0.00,VWS V14.01,2013-04-27 11:46:00,
2013-04-27 07:51:00,52.4,48.7,30.20,SW,229,0.0,0.0,87,0.00,,,0.00,VWS V14.01,2013-04-27 11:51:00,
2013-04-27 07:56:00,52.4,48.7,30.20,SW,229,0.0,0.0,87,0.00,,,0.00,VWS V14.01,2013-04-27 11:56:00,
2013-04-27 08:01:00,52.5,48.8,30.21,SW,229,0.0,0.0,87,0.00,,,0.00,VWS V14.01,2013-04-27 12:01:00,
2013-04-27 08:06:00,52.6,48.8,30.21,SW,229,0.0,0.0,87,0.00,,,0.00,VWS V14.01,2013-04-27 12:06:00,
2013-04-27 08:11:00,52.7,49.0,30.20,SW,229,0.0,0.0,87,0.00,,,0.00,VWS V14.01,2013-04-27 12:11:00,
2013-04-27 08:16:00,52.7,49.0,30.20,SW,229,0.0,0.0,87,0.00,,,0.00,VWS V14.01,2013-04-27 12:16:00,
2013-04-27 08:21:00,52.8,49.0,30.21,SW,229,0.0,0.0,87,0.00,,,0.00,VWS V14.01,2013-04-27 12:21:00,
2013-04-27 08:26:00,52.8,49.0,30.21,SW,229,0.0,0.0,87,0.00,,,0.00,VWS V14.01,2013-04-27 12:26:00,
2013-04-27 08:31:00,52.9,49.1,30.21,SW,229,1.0,1.0,87,0.00,,,0.00,VWS V14.01,2013-04-27 12:31:00,
2013-04-27 08:36:00,53.0,49.2,30.21,SW,229,0.0,0.0,87,0.00,,,0.00,VWS V14.01,2013-04-27 12:36:00,
2013-04-27 08:41:00,53.1,49.3,30.21,SW,229,0.0,0.0,87,0.00,,,0.00,VWS V14.01,2013-04-27 12:41:00,
2013-04-27 08:46:00,53.1,49.0,30.21,SW,229,0.0,2.0,86,0.00,,,0.00,VWS V14.01,2013-04-27 12:46:00,
2013-04-27 08:51:00,53.2,49.4,30.21,East,96,0.0,0.0,87,0.00,,,0.00,VWS V14.01,2013-04-27 12:51:00,
2013-04-27 08:56:00,53.3,49.5,30.21,East,97,0.0,0.0,87,0.00,,,0.00,VWS V14.01,2013-04-27 12:56:00,
2013-04-27 09:01:00,53.3,49.5,30.21,East,96,0.0,0.0,87,0.00,,,0.00,VWS V14.01,2013-04-27 13:01:00,
2013-04-27 09:06:00,53.3,49.5,30.21,East,97,0.0,1.0,87,0.00,,,0.00,VWS V14.01,2013-04-27 13:06:00,
2013-04-27 09:11:00,53.4,49.6,30.22,East,96,0.0,0.0,87,0.00,,,0.00,VWS V14.01,2013-04-27 13:11:00,
2013-04-27 09:16:00,53.5,49.4,30.21,East,96,1.0,1.0,86,0.00,,,0.00,VWS V14.01,2013-04-27 13:16:00,
2013-04-27 09:21:00,53.6,49.5,30.21,East,96,0.0,0.0,86,0.00,,,0.00,VWS V14.01,2013-04-27 13:21:00,
2013-04-27 09:26:00,53.6,49.2,30.21,East,96,2.0,2.0,85,0.00,,,0.00,VWS V14.01,2013-04-27 13:26:00,
2013-04-27 09:31:00,53.7,49.3,30.20,East,96,1.0,1.0,85,0.00,,,0.00,VWS V14.01,2013-04-27 13:31:00,
2013-04-27 09:36:00,53.8,49.1,30.20,East,95,0.0,1.0,84,0.00,,,0.00,VWS V14.01,2013-04-27 13:36:00,
2013-04-27 09:41:00,53.9,49.2,30.20,East,95,2.0,2.0,84,0.00,,,0.00,VWS V14.01,2013-04-27 13:41:00,
2013-04-27 09:49:00,53.9,49.2,30.20,East,96,0.0,0.0,84,0.00,,,0.00,VWS V14.01,2013-04-27 13:49:00,
2013-04-27 09:54:00,54.0,49.3,30.20,East,96,0.0,0.0,84,0.00,,,0.00,VWS V14.01,2013-04-27 13:54:00,
2013-04-27 09:59:00,54.0,49.3,30.20,East,95,0.0,0.0,84,0.00,,,0.00,VWS V14.01,2013-04-27 13:59:00,
2013-04-27 10:04:00,54.1,49.4,30.20,East,96,0.0,0.0,84,0.00,,,0.00,VWS V14.01,2013-04-27 14:04:00,
2013-04-27 10:09:00,54.2,49.5,30.20,East,96,0.0,1.0,84,0.00,,,0.00,VWS V14.01,2013-04-27 14:09:00,
2013-04-27 10:14:00,54.2,49.2,30.19,East,96,0.0,0.0,83,0.00,,,0.00,VWS V14.01,2013-04-27 14:14:00,
2013-04-27 10:19:00,54.4,49.7,30.19,East,95,0.0,0.0,84,0.00,,,0.00,VWS V14.01,2013-04-27 14:19:00,
2013-04-27 10:24:00,54.4,49.7,30.19,East,95,0.0,0.0,84,0.00,,,0.00,VWS V14.01,2013-04-27 14:24:00,
2013-04-27 10:29:00,54.5,49.5,30.19,East,96,0.0,0.0,83,0.00,,,0.00,VWS V14.01,2013-04-27 14:29:00,
2013-04-27 10:34:00,54.5,49.5,30.19,East,95,0.0,0.0,83,0.00,,,0.00,VWS V14.01,2013-04-27 14:34:00,
2013-04-27 10:39:00,54.6,49.5,30.19,East,96,0.0,0.0,83,0.00,,,0.00,VWS V14.01,2013-04-27 14:39:00,
2013-04-27 10:44:00,54.6,49.5,30.19,East,96,0.0,0.0,83,0.01,,,0.01,VWS V14.01,2013-04-27 14:44:00,
2013-04-27 10:49:00,54.6,49.5,30.19,East,96,0.0,1.0,83,0.01,,,0.01,VWS V14.01,2013-04-27 14:49:00,
2013-04-27 10:54:00,54.6,49.5,30.19,East,96,0.0,0.0,83,0.01,,,0.01,VWS V14.01,2013-04-27 14:54:00,
2013-04-27 10:59:00,54.6,49.5,30.19,East,95,2.0,2.0,83,0.01,,,0.01,VWS V14.01,2013-04-27 14:59:00,
2013-04-27 11:04:00,54.6,49.5,30.19,East,98,0.0,0.0,83,0.01,,,0.01,VWS V14.01,2013-04-27 15:04:00,
2013-04-27 11:09:00,54.6,49.5,30.19,East,98,3.0,4.0,83,0.01,,,0.01,VWS V14.01,2013-04-27 15:09:00,
2013-04-27 11:14:00,54.7,49.7,30.19,East,98,0.0,0.0,83,0.01,,,0.01,VWS V14.01,2013-04-27 15:14:00,
2013-04-27 11:19:00,54.6,49.5,30.19,East,98,0.0,0.0,83,0.01,,,0.01,VWS V14.01,2013-04-27 15:19:00,
2013-04-27 11:24:00,54.6,49.5,30.19,East,98,0.0,0.0,83,0.01,,,0.01,VWS V14.01,2013-04-27 15:24:00,
2013-04-27 11:29:00,54.6,49.5,30.19,East,98,0.0,0.0,83,0.01,,,0.01,VWS V14.01,2013-04-27 15:29:00,
2013-04-27 11:34:00,54.7,50.0,30.18,East,98,0.0,0.0,84,0.01,,,0.01,VWS V14.01,2013-04-27 15:34:00,
2013-04-27 11:39:00,54.8,50.1,30.19,East,98,0.0,0.0,84,0.01,,,0.01,VWS V14.01,2013-04-27 15:39:00,
2013-04-27 11:44:00,54.8,49.7,30.19,East,93,0.0,3.0,83,0.01,,,0.01,VWS V14.01,2013-04-27 15:44:00,
2013-04-27 11:49:00,54.9,49.8,30.19,East,92,0.0,0.0,83,0.00,,,0.01,VWS V14.01,2013-04-27 15:49:00,
2013-04-27 11:54:00,55.1,50.4,30.19,East,92,0.0,0.0,84,0.00,,,0.01,VWS V14.01,2013-04-27 15:54:00,
2013-04-27 12:00:00,55.4,50.3,30.19,East,93,2.0,2.0,83,0.00,,,0.01,VWS V14.01,2013-04-27 16:00:00,
2013-04-27 12:05:00,55.8,50.1,30.19,South,186,7.0,7.0,81,0.00,,,0.01,VWS V14.01,2013-04-27 16:05:00,
2013-04-27 12:10:00,56.1,50.0,30.19,ESE,105,7.0,7.0,80,0.00,,,0.01,VWS V14.01,2013-04-27 16:10:00,
2013-04-27 12:15:00,56.3,49.9,30.19,West,272,6.0,6.0,79,0.00,,,0.01,VWS V14.01,2013-04-27 16:15:00,
2013-04-27 12:20:00,56.5,50.1,30.19,SW,236,0.0,1.0,79,0.00,,,0.01,VWS V14.01,2013-04-27 16:20:00,
2013-04-27 12:25:00,56.7,50.3,30.19,WSW,241,0.0,0.0,79,0.00,,,0.01,VWS V14.01,2013-04-27 16:25:00,
2013-04-27 12:30:00,56.8,50.4,30.20,South,176,2.0,2.0,79,0.00,,,0.01,VWS V14.01,2013-04-27 16:30:00,
2013-04-27 12:35:00,56.7,50.9,30.20,South,190,2.0,3.0,81,0.00,,,0.01,VWS V14.01,2013-04-27 16:35:00,
2013-04-27 12:40:00,56.5,51.4,30.19,ESE,116,2.0,5.0,83,0.00,,,0.01,VWS V14.01,2013-04-27 16:40:00,
2013-04-27 12:45:00,56.1,51.7,30.19,SSW,213,2.0,2.0,85,0.00,,,0.01,VWS V14.01,2013-04-27 16:45:00,
2013-04-27 12:50:00,55.8,52.0,30.19,South,179,1.0,3.0,87,0.00,,,0.01,VWS V14.01,2013-04-27 16:50:00,
2013-04-27 12:55:00,55.5,52.3,30.19,ESE,118,3.0,4.0,89,0.00,,,0.01,VWS V14.01,2013-04-27 16:55:00,
2013-04-27 13:00:00,55.1,52.2,30.19,ESE,105,0.0,3.0,90,0.00,,,0.01,VWS V14.01,2013-04-27 17:00:00,
2013-04-27 13:05:00,55.0,52.7,30.18,ESE,118,3.0,6.0,92,0.00,,,0.01,VWS V14.01,2013-04-27 17:05:00,
2013-04-27 13:10:00,54.8,52.8,30.17,SE,136,0.0,1.0,93,0.00,,,0.01,VWS V14.01,2013-04-27 17:10:00,
2013-04-27 13:15:00,54.9,53.2,30.17,ESE,113,1.0,3.0,94,0.00,,,0.01,VWS V14.01,2013-04-27 17:15:00,
2013-04-27 13:20:00,54.9,53.2,30.17,ESE,106,4.0,5.0,94,0.00,,,0.01,VWS V14.01,2013-04-27 17:20:00,
2013-04-27 13:25:00,55.1,53.4,30.17,ESE,108,0.0,1.0,94,0.00,,,0.01,VWS V14.01,2013-04-27 17:25:00,
2013-04-27 13:30:00,55.1,53.7,30.17,ESE,108,0.0,0.0,95,0.00,,,0.01,VWS V14.01,2013-04-27 17:30:00,
2013-04-27 13:35:00,55.4,54.0,30.16,SSE,160,0.0,4.0,95,0.00,,,0.01,VWS V14.01,2013-04-27 17:35:00,
2013-04-27 13:40:00,55.5,54.1,30.16,East,97,0.0,1.0,95,0.00,,,0.01,VWS V14.01,2013-04-27 17:40:00,
2013-04-27 13:45:00,55.5,54.1,30.16,SSW,202,0.0,0.0,95,0.00,,,0.01,VWS V14.01,2013-04-27 17:45:00,
2013-04-27 13:50:00,55.8,54.4,30.15,SSE,150,3.0,3.0,95,0.00,,,0.01,VWS V14.01,2013-04-27 17:50:00,
2013-04-27 13:55:00,56.0,54.9,30.15,SSE,164,1.0,3.0,96,0.00,,,0.01,VWS V14.01,2013-04-27 17:55:00,
2013-04-27 14:00:00,56.2,55.1,30.15,SE,144,3.0,3.0,96,0.00,,,0.01,VWS V14.01,2013-04-27 18:00:00,
2013-04-27 14:05:00,56.4,55.0,30.15,SSW,202,2.0,3.0,95,0.00,,,0.01,VWS V14.01,2013-04-27 18:05:00,
2013-04-27 14:10:00,56.4,55.3,30.14,ENE,59,0.0,1.0,96,0.00,,,0.01,VWS V14.01,2013-04-27 18:10:00,
2013-04-27 14:15:00,56.6,55.2,30.13,NNE,22,1.0,3.0,95,0.00,,,0.01,VWS V14.01,2013-04-27 18:15:00,
2013-04-27 14:20:00,56.3,54.9,30.12,SSW,202,2.0,3.0,95,0.00,,,0.01,VWS V14.01,2013-04-27 18:20:00,
2013-04-27 14:25:00,56.3,54.9,30.12,SSE,167,0.0,2.0,95,0.00,,,0.01,VWS V14.01,2013-04-27 18:25:00,
2013-04-27 14:30:00,56.6,55.2,30.11,SSE,159,1.0,2.0,95,0.00,,,0.01,VWS V14.01,2013-04-27 18:30:00,
2013-04-27 14:35:00,56.6,55.2,30.10,ENE,78,1.0,5.0,95,0.00,,,0.01,VWS V14.01,2013-04-27 18:35:00,
2013-04-27 14:40:00,56.4,54.7,30.10,ESE,121,0.0,0.0,94,0.00,,,0.01,VWS V14.01,2013-04-27 18:40:00,
2013-04-27 14:45:00,56.3,54.6,30.10,East,82,4.0,5.0,94,0.00,,,0.01,VWS V14.01,2013-04-27 18:45:00,
2013-04-27 14:50:00,56.2,54.5,30.10,East,82,1.0,2.0,94,0.00,,,0.01,VWS V14.01,2013-04-27 18:50:00,
2013-04-27 14:55:00,56.0,54.3,30.10,NE,50,4.0,4.0,94,0.00,,,0.01,VWS V14.01,2013-04-27 18:55:00,
2013-04-27 15:00:00,56.0,54.3,30.10,ENE,68,1.0,2.0,94,0.00,,,0.01,VWS V14.01,2013-04-27 19:00:00,
2013-04-27 15:05:00,55.9,54.2,30.10,SE,128,2.0,2.0,94,0.00,,,0.01,VWS V14.01,2013-04-27 19:05:00,
2013-04-27 15:11:00,55.9,54.2,30.10,SSE,155,5.0,5.0,94,0.00,,,0.01,VWS V14.01,2013-04-27 19:11:00,
2013-04-27 15:16:00,55.9,54.2,30.11,SSW,200,0.0,0.0,94,0.00,,,0.01,VWS V14.01,2013-04-27 19:16:00,
2013-04-27 15:21:00,55.9,54.2,30.10,East,84,0.0,2.0,94,0.00,,,0.01,VWS V14.01,2013-04-27 19:21:00,
2013-04-27 15:26:00,56.0,54.3,30.10,East,95,2.0,4.0,94,0.00,,,0.01,VWS V14.01,2013-04-27 19:26:00,
2013-04-27 15:31:00,56.0,54.3,30.09,SSW,211,1.0,3.0,94,0.00,,,0.01,VWS V14.01,2013-04-27 19:31:00,
2013-04-27 15:36:00,55.9,54.2,30.09,SE,146,2.0,2.0,94,0.00,,,0.01,VWS V14.01,2013-04-27 19:36:00,
2013-04-27 15:41:00,55.9,53.9,30.09,East,83,0.0,0.0,93,0.00,,,0.01,VWS V14.01,2013-04-27 19:41:00,
2013-04-27 15:46:00,55.9,53.9,30.09,East,89,0.0,1.0,93,0.00,,,0.01,VWS V14.01,2013-04-27 19:46:00,
2013-04-27 15:51:00,55.9,53.9,30.09,ESE,112,4.0,4.0,93,0.00,,,0.01,VWS V14.01,2013-04-27 19:51:00,
2013-04-27 15:56:00,55.9,54.2,30.09,ESE,113,3.0,3.0,94,0.00,,,0.01,VWS V14.01,2013-04-27 19:56:00,
2013-04-27 16:01:00,55.9,53.9,30.09,ESE,110,1.0,6.0,93,0.00,,,0.01,VWS V14.01,2013-04-27 20:01:00,
2013-04-27 16:06:00,55.9,54.2,30.09,ESE,105,3.0,4.0,94,0.00,,,0.01,VWS V14.01,2013-04-27 20:06:00,
2013-04-27 16:11:00,55.9,53.9,30.09,East,90,1.0,1.0,93,0.00,,,0.01,VWS V14.01,2013-04-27 20:11:00,
2013-04-27 16:16:00,55.9,53.9,30.08,East,90,1.0,1.0,93,0.00,,,0.01,VWS V14.01,2013-04-27 20:16:00,
2013-04-27 16:21:00,55.9,53.9,30.08,East,90,1.0,3.0,93,0.00,,,0.01,VWS V14.01,2013-04-27 20:21:00,
2013-04-27 16:26:00,56.0,54.0,30.08,East,90,0.0,1.0,93,0.00,,,0.01,VWS V14.01,2013-04-27 20:26:00,
2013-04-27 16:31:00,56.1,54.1,30.08,East,90,0.0,0.0,93,0.00,,,0.01,VWS V14.01,2013-04-27 20:31:00,
2013-04-27 16:36:00,56.2,54.5,30.08,East,101,0.0,0.0,94,0.00,,,0.01,VWS V14.01,2013-04-27 20:36:00,
2013-04-27 16:41:00,56.2,54.2,30.08,East,101,0.0,0.0,93,0.00,,,0.01,VWS V14.01,2013-04-27 20:41:00,
2013-04-27 16:46:00,56.2,54.2,30.07,East,101,0.0,1.0,93,0.00,,,0.01,VWS V14.01,2013-04-27 20:46:00,
2013-04-27 16:51:00,56.2,54.2,30.07,East,83,4.0,6.0,93,0.00,,,0.01,VWS V14.01,2013-04-27 20:51:00,
2013-04-27 16:56:00,56.3,54.3,30.07,SW,236,3.0,4.0,93,0.00,,,0.01,VWS V14.01,2013-04-27 20:56:00,
2013-04-27 17:01:00,56.4,54.4,30.07,SE,137,0.0,0.0,93,0.00,,,0.01,VWS V14.01,2013-04-27 21:01:00,
2013-04-27 17:06:00,56.5,54.5,30.07,SE,136,0.0,0.0,93,0.00,,,0.01,VWS V14.01,2013-04-27 21:06:00,
2013-04-27 17:11:00,56.6,54.6,30.07,East,99,3.0,3.0,93,0.00,,,0.01,VWS V14.01,2013-04-27 21:11:00,
2013-04-27 17:16:00,56.6,54.6,30.06,ENE,67,0.0,0.0,93,0.00,,,0.01,VWS V14.01,2013-04-27 21:16:00,
2013-04-27 17:21:00,56.7,54.7,30.07,ENE,67,1.0,1.0,93,0.00,,,0.01,VWS V14.01,2013-04-27 21:21:00,
2013-04-27 17:26:00,56.7,54.7,30.06,ENE,67,2.0,5.0,93,0.00,,,0.01,VWS V14.01,2013-04-27 21:26:00,
2013-04-27 17:31:00,56.7,54.4,30.06,ENE,69,0.0,0.0,92,0.00,,,0.01,VWS V14.01,2013-04-27 21:31:00,
2013-04-27 17:36:00,56.7,54.7,30.06,ENE,68,0.0,0.0,93,0.00,,,0.01,VWS V14.01,2013-04-27 21:36:00,
2013-04-27 17:41:00,56.8,54.8,30.06,ENE,69,0.0,0.0,93,0.00,,,0.01,VWS V14.01,2013-04-27 21:41:00,
2013-04-27 17:46:00,56.8,54.8,30.05,ENE,69,0.0,1.0,93,0.00,,,0.01,VWS V14.01,2013-04-27 21:46:00,
2013-04-27 17:51:00,56.7,54.7,30.05,ENE,68,0.0,0.0,93,0.00,,,0.01,VWS V14.01,2013-04-27 21:51:00,
2013-04-27 17:56:00,56.7,54.7,30.05,ENE,68,0.0,2.0,93,0.00,,,0.01,VWS V14.01,2013-04-27 21:56:00,
2013-04-27 18:01:00,56.6,54.6,30.05,ENE,67,0.0,0.0,93,0.00,,,0.01,VWS V14.01,2013-04-27 22:01:00,
2013-04-27 18:06:00,56.6,54.6,30.05,ENE,67,1.0,1.0,93,0.00,,,0.01,VWS V14.01,2013-04-27 22:06:00,
2013-04-27 18:11:00,56.6,54.6,30.05,ENE,67,0.0,0.0,93,0.00,,,0.01,VWS V14.01,2013-04-27 22:11:00,
2013-04-27 18:16:00,56.6,54.6,30.05,ENE,67,1.0,1.0,93,0.00,,,0.01,VWS V14.01,2013-04-27 22:16:00,
2013-04-27 18:21:00,56.6,54.6,30.05,ENE,67,0.0,0.0,93,0.00,,,0.01,VWS V14.01,2013-04-27 22:21:00,
2013-04-27 18:26:00,56.5,54.5,30.04,ENE,63,0.0,0.0,93,0.00,,,0.01,VWS V14.01,2013-04-27 22:26:00,
2013-04-27 18:32:00,56.5,54.5,30.03,ENE,63,0.0,0.0,93,0.00,,,0.01,VWS V14.01,2013-04-27 22:32:00,
2013-04-27 18:37:00,56.5,54.5,30.03,ENE,62,0.0,0.0,93,0.00,,,0.01,VWS V14.01,2013-04-27 22:37:00,
2013-04-27 18:42:00,56.5,54.8,30.03,ENE,61,0.0,5.0,94,0.00,,,0.01,VWS V14.01,2013-04-27 22:42:00,
2013-04-27 18:47:00,56.5,54.8,30.03,ENE,61,0.0,1.0,94,0.00,,,0.01,VWS V14.01,2013-04-27 22:47:00,
2013-04-27 18:52:00,56.5,54.8,30.02,ENE,61,0.0,4.0,94,0.00,,,0.01,VWS V14.01,2013-04-27 22:52:00,
2013-04-27 18:57:00,56.5,54.8,30.02,ENE,61,0.0,1.0,94,0.00,,,0.01,VWS V14.01,2013-04-27 22:57:00,
2013-04-27 19:02:00,56.5,54.8,30.03,ENE,61,0.0,1.0,94,0.00,,,0.01,VWS V14.01,2013-04-27 23:02:00,
2013-04-27 19:07:00,56.6,54.9,30.02,ENE,61,0.0,0.0,94,0.00,,,0.01,VWS V14.01,2013-04-27 23:07:00,
2013-04-27 19:12:00,56.6,54.9,30.02,ENE,64,0.0,1.0,94,0.00,,,0.01,VWS V14.01,2013-04-27 23:12:00,
2013-04-27 19:17:00,56.6,54.9,30.02,ENE,65,1.0,1.0,94,0.00,,,0.01,VWS V14.01,2013-04-27 23:17:00,
2013-04-27 19:22:00,56.5,54.8,30.02,ENE,64,0.0,0.0,94,0.00,,,0.01,VWS V14.01,2013-04-27 23:22:00,
2013-04-27 19:27:00,56.6,54.9,30.01,ENE,68,1.0,4.0,94,0.00,,,0.01,VWS V14.01,2013-04-27 23:27:00,
2013-04-27 19:32:00,56.6,54.9,30.01,ENE,68,0.0,1.0,94,0.00,,,0.01,VWS V14.01,2013-04-27 23:32:00,
2013-04-27 19:37:00,56.5,54.8,30.01,ENE,69,2.0,3.0,94,0.00,,,0.01,VWS V14.01,2013-04-27 23:37:00,
2013-04-27 19:42:00,56.5,55.1,30.00,ENE,69,0.0,0.0,95,0.00,,,0.01,VWS V14.01,2013-04-27 23:42:00,
2013-04-27 19:47:00,56.4,55.0,29.99,ENE,64,7.0,7.0,95,0.00,,,0.01,VWS V14.01,2013-04-27 23:47:00,
2013-04-27 19:52:00,56.3,54.9,29.99,ENE,75,1.0,1.0,95,0.00,,,0.01,VWS V14.01,2013-04-27 23:52:00,
2013-04-27 19:57:00,56.3,54.9,29.99,ENE,75,1.0,1.0,95,0.00,,,0.01,VWS V14.01,2013-04-27 23:57:00,
2013-04-27 20:02:00,56.2,54.8,29.99,ENE,75,0.0,0.0,95,0.00,,,0.01,VWS V14.01,2013-04-28 00:02:00,
2013-04-27 20:07:00,56.2,55.1,29.99,ENE,75,0.0,0.0,96,0.00,,,0.01,VWS V14.01,2013-04-28 00:07:00,
2013-04-27 20:12:00,56.2,55.1,30.00,ENE,76,0.0,1.0,96,0.00,,,0.01,VWS V14.01,2013-04-28 00:12:00,
2013-04-27 20:17:00,56.1,55.0,30.00,ENE,69,0.0,0.0,96,0.00,,,0.01,VWS V14.01,2013-04-28 00:17:00,
2013-04-27 20:22:00,56.1,55.0,30.00,ENE,69,0.0,0.0,96,0.00,,,0.01,VWS V14.01,2013-04-28 00:22:00,
2013-04-27 20:27:00,56.1,55.0,30.00,East,80,0.0,2.0,96,0.00,,,0.01,VWS V14.01,2013-04-28 00:27:00,
2013-04-27 20:32:00,56.1,55.0,30.00,ESE,113,1.0,1.0,96,0.00,,,0.01,VWS V14.01,2013-04-28 00:32:00,
2013-04-27 20:37:00,56.1,55.0,29.99,ESE,110,0.0,0.0,96,0.00,,,0.01,VWS V14.01,2013-04-28 00:37:00,
2013-04-27 20:42:00,56.0,54.9,29.99,East,97,0.0,0.0,96,0.00,,,0.01,VWS V14.01,2013-04-28 00:42:00,
2013-04-27 20:47:00,56.0,54.9,29.99,East,101,0.0,1.0,96,0.00,,,0.01,VWS V14.01,2013-04-28 00:47:00,
2013-04-27 20:52:00,55.9,54.8,29.99,East,101,0.0,0.0,96,0.00,,,0.01,VWS V14.01,2013-04-28 00:52:00,
2013-04-27 20:57:00,55.9,54.8,29.99,East,98,0.0,0.0,96,0.00,,,0.01,VWS V14.01,2013-04-28 00:57:00,
2013-04-27 21:02:00,55.9,54.8,29.99,East,99,0.0,1.0,96,0.00,,,0.01,VWS V14.01,2013-04-28 01:02:00,
2013-04-27 21:07:00,55.8,54.7,29.99,East,99,0.0,0.0,96,0.00,,,0.01,VWS V14.01,2013-04-28 01:07:00,
2013-04-27 21:12:00,55.7,54.6,29.99,East,101,0.0,0.0,96,0.00,,,0.01,VWS V14.01,2013-04-28 01:12:00,
2013-04-27 21:17:00,55.7,54.6,29.98,ESE,105,1.0,2.0,96,0.00,,,0.01,VWS V14.01,2013-04-28 01:17:00,
2013-04-27 21:22:00,55.6,54.8,29.97,ESE,114,3.0,4.0,97,0.00,,,0.01,VWS V14.01,2013-04-28 01:22:00,
2013-04-27 21:27:00,55.5,54.4,29.97,East,88,0.0,4.0,96,0.00,,,0.01,VWS V14.01,2013-04-28 01:27:00,
2013-04-27 21:32:00,55.4,54.6,29.96,East,88,1.0,1.0,97,0.00,,,0.01,VWS V14.01,2013-04-28 01:32:00,
2013-04-27 21:37:00,55.3,54.5,29.96,ENE,69,4.0,6.0,97,0.00,,,0.01,VWS V14.01,2013-04-28 01:37:00,
2013-04-27 21:42:00,55.2,54.4,29.95,East,82,1.0,3.0,97,0.00,,,0.01,VWS V14.01,2013-04-28 01:42:00,
2013-04-27 21:48:00,55.1,54.3,29.96,East,99,2.0,4.0,97,0.00,,,0.01,VWS V14.01,2013-04-28 01:48:00,
2013-04-27 21:53:00,55.0,54.2,29.96,SSE,149,0.0,3.0,97,0.00,,,0.01,VWS V14.01,2013-04-28 01:53:00,
2013-04-27 21:58:00,55.0,54.2,29.96,SSW,199,3.0,4.0,97,0.00,,,0.01,VWS V14.01,2013-04-28 01:58:00,
2013-04-27 22:03:00,54.9,54.1,29.96,SSW,211,3.0,5.0,97,0.00,,,0.01,VWS V14.01,2013-04-28 02:03:00,
2013-04-27 22:08:00,54.8,54.0,29.96,SW,215,3.0,3.0,97,0.00,,,0.01,VWS V14.01,2013-04-28 02:08:00,
2013-04-27 22:13:00,54.7,53.9,29.96,SSE,156,7.0,7.0,97,0.00,,,0.01,VWS V14.01,2013-04-28 02:13:00,
2013-04-27 22:18:00,54.7,53.9,29.95,SW,225,0.0,2.0,97,0.00,,,0.01,VWS V14.01,2013-04-28 02:18:00,
2013-04-27 22:23:00,54.7,53.9,29.96,SE,134,4.0,15.0,97,0.00,,,0.01,VWS V14.01,2013-04-28 02:23:00,
2013-04-27 22:28:00,54.7,53.9,29.95,SSE,161,6.0,14.0,97,0.00,,,0.01,VWS V14.01,2013-04-28 02:28:00,
2013-04-27 22:33:00,54.7,54.2,29.94,ENE,74,3.0,5.0,98,0.00,,,0.01,VWS V14.01,2013-04-28 02:33:00,
2013-04-27 22:38:00,54.8,54.2,29.94,SE,144,4.0,6.0,98,0.00,,,0.01,VWS V14.01,2013-04-28 02:38:00,
2013-04-27 22:43:00,54.8,54.2,29.92,SSE,161,3.0,7.0,98,0.00,,,0.01,VWS V14.01,2013-04-28 02:43:00,
2013-04-27 22:48:00,54.8,54.2,29.92,ENE,67,3.0,11.0,98,0.00,,,0.01,VWS V14.01,2013-04-28 02:48:00,
2013-04-27 22:53:00,54.9,54.3,29.92,South,191,2.0,4.0,98,0.00,,,0.01,VWS V14.01,2013-04-28 02:53:00,
2013-04-27 22:58:00,54.9,54.3,29.90,SW,218,3.0,5.0,98,0.00,,,0.01,VWS V14.01,2013-04-28 02:58:00,
2013-04-27 23:03:00,55.0,54.5,29.89,SSW,200,5.0,7.0,98,0.00,,,0.01,VWS V14.01,2013-04-28 03:03:00,
2013-04-27 23:08:00,55.2,54.7,29.90,South,182,3.0,3.0,98,0.00,,,0.01,VWS V14.01,2013-04-28 03:08:00,
2013-04-27 23:13:00,55.4,54.8,29.92,SSW,200,2.0,2.0,98,0.00,,,0.01,VWS V14.01,2013-04-28 03:13:00,
2013-04-27 23:18:00,55.5,55.0,29.94,SE,130,10.0,10.0,98,0.00,,,0.01,VWS V14.01,2013-04-28 03:18:00,
2013-04-27 23:23:00,55.6,55.0,29.93,East,91,0.0,3.0,98,0.00,,,0.01,VWS V14.01,2013-04-28 03:23:00,
2013-04-27 23:28:00,55.5,55.0,29.94,South,175,4.0,6.0,98,0.00,,,0.01,VWS V14.01,2013-04-28 03:28:00,
2013-04-27 23:33:00,55.4,54.8,29.93,South,191,6.0,9.0,98,0.00,,,0.01,VWS V14.01,2013-04-28 03:33:00,
2013-04-27 23:38:00,55.3,54.8,29.92,SSW,209,4.0,10.0,98,0.00,,,0.01,VWS V14.01,2013-04-28 03:38:00,
2013-04-27 23:43:00,55.2,54.7,29.93,South,188,2.0,6.0,98,0.00,,,0.01,VWS V14.01,2013-04-28 03:43:00,
2013-04-27 23:48:00,55.3,54.8,29.92,SSE,161,3.0,11.0,98,0.00,,,0.01,VWS V14.01,2013-04-28 03:48:00,
2013-04-27 23:53:00,55.2,54.7,29.92,SE,140,4.0,5.0,98,0.00,,,0.01,VWS V14.01,2013-04-28 03:53:00,
2013-04-27 23:58:00,55.3,54.8,29.92,SE,140,1.0,3.0,98,0.00,,,0.00,VWS V14.01,2013-04-28 03:58:00,